Weather reports worldwide

Advertisment
Andrewsfield, United Kingdom (3684): temperature & dewpoint: 17.04.2019 17:00:00 - 23.04.2019 17:00:00 (BST)Andrewsfield, United Kingdom (3684): temperature -20cm & temperature -100cm: 17.04.2019 17:00:00 - 23.04.2019 17:00:00 (BST)Andrewsfield, United Kingdom (3684): wind speed: 17.04.2019 17:00:00 - 23.04.2019 17:00:00 (BST)Andrewsfield, United Kingdom (3684): wind direction: 17.04.2019 17:00:00 - 23.04.2019 17:00:00 (BST)Andrewsfield, United Kingdom (3684): reduced air pressure: 17.04.2019 17:00:00 - 23.04.2019 17:00:00 (BST)Andrewsfield, United Kingdom (3684): visibility: 17.04.2019 17:00:00 - 23.04.2019 17:00:00 (BST)Andrewsfield, United Kingdom (3684): precipitation: 17.04.2019 17:00:00 - 23.04.2019 17:00:00 (BST)
Date & Time tt [°C] td [°C] tt -20cm [°C] tt -100cm [°C] ff [km/h] ff [kn] dd ppp [hPa] vv [km] rr [mm]
23.04.2019 17:00:00 17,5 6,8 - - 16 9 E 996,1 40 0,0
23.04.2019 16:00:00 18,5 8,3 - - 16 9 E 996,3 35 0,0
23.04.2019 15:00:00 18,1 8,8 - - 16 9 ENE 996,9 35 0,0
23.04.2019 14:00:00 18,0 9,1 - - 16 9 E 997,3 30 0,0
23.04.2019 13:00:00 17,5 8,4 - - 13 7 ENE 997,5 40 0,0
23.04.2019 12:00:00 16,5 7,8 - - 13 7 E 997,9 50 0,0
23.04.2019 11:00:00 15,8 7,9 - - 15 8 ESE 998,0 40 0,0
23.04.2019 10:00:00 13,7 7,8 11,7 9,7 13 7 E 998,3 40 0,0
23.04.2019 09:00:00 12,3 7,0 - - 13 7 E 998,5 40 0,0
23.04.2019 08:00:00 11,4 6,7 - - 11 6 E 998,7 35 0,0
23.04.2019 07:00:00 11,0 6,4 - - 13 7 E 998,8 35 0,0
23.04.2019 06:00:00 9,6 6,2 - - 13 7 ENE 998,8 30 0,0
23.04.2019 05:00:00 9,1 5,7 - - 9 5 ENE 999,5 22 0,0
23.04.2019 04:00:00 10,0 5,9 - - 11 6 NE 999,7 18 0,0
23.04.2019 03:00:00 10,7 5,9 - - 9 5 NNE 1000,4 17 0,0
23.04.2019 02:00:00 11,2 5,6 - - 11 6 NE 1000,7 15 0,0
23.04.2019 01:00:00 11,0 5,3 - - 9 5 NE 1001,1 15 0,0
23.04.2019 00:00:00 12,1 5,2 - - 8 4 NE 1001,8 17 0,0
22.04.2019 23:00:00 13,1 5,8 - - 5 3 ENE 1002,2 15 0,0
22.04.2019 22:00:00 15,1 6,8 - - 8 4 E 1002,5 15 0,0
22.04.2019 21:00:00 16,5 6,2 - - 9 5 E 1002,7 18 0,0
22.04.2019 20:00:00 17,5 6,3 - - 11 6 ESE 1002,7 18 0,0
22.04.2019 19:00:00 18,3 7,4 - - 9 5 E 1002,7 14 0,0
22.04.2019 18:00:00 19,4 6,5 - - 16 9 ESE 1003,0 16 0,0
22.04.2019 17:00:00 20,7 4,6 - - 18 10 ESE 1003,1 26 0,0
22.04.2019 16:00:00 21,7 5,5 - - 21 11 ESE 1003,6 30 0,0
22.04.2019 15:00:00 22,6 6,5 - - 21 11 SE 1004,1 30 0,0
22.04.2019 14:00:00 21,8 8,9 - - 16 9 E 1004,7 20 0,0
22.04.2019 13:00:00 20,9 7,9 - - 18 10 E 1005,4 17 0,0
22.04.2019 12:00:00 19,5 8,5 - - 16 9 ESE 1006,3 14 0,0
22.04.2019 11:00:00 18,9 7,6 - - 18 10 E 1007,0 15 0,0
22.04.2019 10:00:00 17,0 7,8 11,2 9,5 13 7 E 1007,6 13 0,0
22.04.2019 09:00:00 13,4 7,5 - - 9 5 ENE 1008,3 11 0,0
22.04.2019 08:00:00 9,4 6,4 - - 9 5 NE 1009,0 8 0,0
22.04.2019 07:00:00 6,8 4,7 - - 8 4 NE 1009,5 7 0,0
22.04.2019 06:00:00 5,4 3,1 - - 8 4 NE 1010,0 7 0,0
22.04.2019 05:00:00 4,2 2,1 - - 8 4 NNE 1010,6 8 0,0
22.04.2019 04:00:00 4,2 1,8 - - 8 4 NE 1011,4 9 0,0
22.04.2019 03:00:00 4,1 1,1 - - 8 4 NE 1012,3 9 0,0
22.04.2019 02:00:00 5,3 1,1 - - 4 2 NNE 1013,1 11 0,0
22.04.2019 01:00:00 6,3 1,2 - - 2 1 ENE 1014,1 15 0,0
22.04.2019 00:00:00 7,9 1,0 - - 4 2 E 1014,8 20 0,0
21.04.2019 23:00:00 9,4 2,1 - - 8 4 E 1015,1 22 0,0
21.04.2019 22:00:00 11,2 2,4 - - 5 3 ESE 1015,6 20 0,0
21.04.2019 21:00:00 13,0 2,6 - - 11 6 E 1016,0 26 0,0
21.04.2019 20:00:00 13,8 2,8 - - 9 5 SE 1016,2 35 0,0
21.04.2019 19:00:00 16,9 3,2 - - 11 6 SE 1016,2 35 0,0
21.04.2019 18:00:00 18,5 2,6 - - 16 9 SE 1016,7 35 0,0
21.04.2019 17:00:00 19,3 3,4 - - 16 9 SE 1017,5 30 0,0
21.04.2019 16:00:00 19,8 3,7 - - 21 11 SE 1018,3 30 0,0
21.04.2019 15:00:00 20,0 4,1 - - 21 11 SE 1018,9 30 0,0
21.04.2019 14:00:00 20,6 5,3 - - 22 12 SE 1019,5 28 0,0
21.04.2019 13:00:00 20,2 8,0 - - 16 9 ESE 1020,2 18 0,0
21.04.2019 12:00:00 19,4 9,1 - - 11 6 E 1020,8 16 0,0
21.04.2019 11:00:00 18,1 9,4 - - 8 4 ESE 1021,5 15 0,0
21.04.2019 10:00:00 15,8 8,7 11,0 9,2 5 3 E 1022,2 13 0,0
21.04.2019 09:00:00 12,8 7,8 - - 8 4 ENE 1022,7 13 0,0
21.04.2019 08:00:00 9,4 6,2 - - 8 4 NNE 1023,3 10 0,0
21.04.2019 07:00:00 7,9 4,8 - - 9 5 NNE 1023,5 9 0,0
21.04.2019 06:00:00 7,1 4,4 - - 11 6 NNE 1023,7 11 0,0
21.04.2019 05:00:00 7,5 4,1 - - 9 5 NNE 1024,1 13 0,0
21.04.2019 04:00:00 8,5 4,1 - - 11 6 NNE 1024,7 14 0,0
21.04.2019 03:00:00 8,7 3,9 - - 11 6 NNE 1025,4 15 0,0
21.04.2019 02:00:00 9,1 3,6 - - 9 5 NNE 1026,1 15 0,0
21.04.2019 01:00:00 9,8 4,1 - - 9 5 NNE 1026,9 16 0,0
21.04.2019 00:00:00 9,1 4,1 - - 9 5 NE 1027,7 18 0,0
20.04.2019 23:00:00 9,8 3,4 - - 9 5 ENE 1028,1 19 0,0
20.04.2019 22:00:00 11,5 3,9 - - 11 6 ENE 1028,2 24 0,0
20.04.2019 21:00:00 12,3 5,1 - - 9 5 ENE 1028,2 30 0,0
20.04.2019 20:00:00 16,6 5,5 - - 11 6 ENE 1027,7 40 0,0
20.04.2019 19:00:00 19,9 5,6 - - 13 7 ENE 1027,6 40 0,0
20.04.2019 18:00:00 21,3 5,6 - - 18 10 ENE 1027,7 45 0,0
20.04.2019 17:00:00 22,4 6,5 - - 13 7 NE 1028,0 40 0,0
20.04.2019 16:00:00 22,5 5,5 - - 13 7 ENE 1028,3 40 0,0
20.04.2019 15:00:00 22,6 6,2 - - 9 5 NE 1029,0 45 0,0
20.04.2019 14:00:00 22,1 9,0 - - 11 6 E 1029,6 29 0,0
20.04.2019 13:00:00 21,0 9,7 - - 11 6 NE 1030,1 24 0,0
20.04.2019 12:00:00 19,3 9,2 - - 11 6 NE 1030,6 21 0,0
20.04.2019 11:00:00 17,8 10,0 - - 13 7 NNE 1030,6 17 0,0
20.04.2019 10:00:00 15,5 9,4 10,7 9,0 13 7 NNE 1030,8 14 0,0
20.04.2019 09:00:00 12,0 8,5 - - 13 7 N 1031,0 11 0,0
20.04.2019 08:00:00 8,9 7,0 - - 15 8 N 1031,3 9 0,0
20.04.2019 07:00:00 6,0 5,4 - - 13 7 N 1031,2 4,9 0,0
20.04.2019 06:00:00 5,1 4,7 - - 11 6 N 1031,1 2,4 0,0
20.04.2019 05:00:00 5,5 4,9 - - 11 6 N 1031,0 2,3 0,0
20.04.2019 04:00:00 6,7 5,4 - - 11 6 NNW 1031,0 5 0,0
20.04.2019 03:00:00 7,7 5,4 - - 11 6 N 1030,7 8 0,0
20.04.2019 02:00:00 8,4 5,4 - - 13 7 N 1030,7 9 0,0
20.04.2019 01:00:00 9,2 5,7 - - 9 5 NNE 1031,0 11 0,0
20.04.2019 00:00:00 10,4 5,8 - - 13 7 NE 1031,2 12 0,0
19.04.2019 23:00:00 11,3 6,4 - - 11 6 NNE 1031,1 13 0,0
19.04.2019 22:00:00 12,7 6,6 - - 11 6 NE 1031,0 17 0,0
19.04.2019 21:00:00 12,9 5,9 - - 9 5 ENE 1030,6 18 0,0
19.04.2019 20:00:00 15,1 6,4 - - 9 5 ENE 1029,9 26 0,0
19.04.2019 19:00:00 19,1 6,8 - - 11 6 ENE 1029,1 29 0,0
19.04.2019 18:00:00 20,5 5,8 - - 11 6 ENE 1028,7 28 0,0
19.04.2019 17:00:00 21,0 5,2 - - 11 6 E 1028,5 27 0,0
19.04.2019 16:00:00 21,7 6,8 - - 13 7 ENE 1028,4 29 0,0
19.04.2019 15:00:00 21,5 6,0 - - 16 9 ENE 1028,6 29 0,0
19.04.2019 14:00:00 21,6 7,5 - - 18 10 ENE 1028,6 26 0,0
19.04.2019 13:00:00 20,6 6,9 - - 16 9 NE 1028,5 23 0,0
19.04.2019 12:00:00 19,2 7,6 - - 15 8 ENE 1028,6 25 0,0
19.04.2019 11:00:00 17,3 8,3 - - 9 5 ENE 1028,7 20 0,0
19.04.2019 10:00:00 14,6 7,6 10,0 8,9 15 8 ENE 1028,7 16 0,0
19.04.2019 09:00:00 12,7 7,6 - - 15 8 ENE 1028,4 13 0,0
19.04.2019 08:00:00 10,6 6,6 - - 16 9 NE 1028,1 11 0,0
19.04.2019 07:00:00 8,3 5,7 - - 13 7 NNE 1027,8 8 0,0
19.04.2019 06:00:00 7,8 5,3 - - 15 8 NE 1027,3 8 0,0
19.04.2019 05:00:00 7,9 5,6 - - 11 6 NNE 1027,0 7 0,0
19.04.2019 04:00:00 8,1 5,7 - - 15 8 NE 1026,8 7 0,0
19.04.2019 03:00:00 8,7 6,0 - - 18 10 NE 1026,6 9 0,0
19.04.2019 02:00:00 8,9 6,0 - - 13 7 NE 1026,5 11 0,0
19.04.2019 01:00:00 9,0 5,8 - - 13 7 NNE 1026,5 12 0,0
19.04.2019 00:00:00 9,9 5,7 - - 11 6 NE 1026,5 15 0,0
18.04.2019 23:00:00 10,9 5,9 - - 13 7 NE 1026,3 16 0,0
18.04.2019 22:00:00 11,6 6,0 - - 13 7 NE 1026,0 16 0,0
18.04.2019 21:00:00 12,6 6,0 - - 15 8 NE 1025,5 18 0,0
18.04.2019 20:00:00 15,1 5,3 - - 15 8 ENE 1024,8 25 0,0
18.04.2019 19:00:00 16,9 5,4 - - 15 8 E 1024,4 22 0,0
18.04.2019 18:00:00 17,4 5,1 - - 13 7 E 1023,9 22 0,0
18.04.2019 17:00:00 17,9 4,9 - - 21 11 E 1023,6 19 0,0
18.04.2019 16:00:00 18,7 6,1 - - 24 13 E 1023,4 18 0,0
18.04.2019 15:00:00 19,6 5,9 - - 21 11 E 1023,4 20 0,0
18.04.2019 14:00:00 19,4 6,5 - - 18 10 E 1023,3 17 0,0
18.04.2019 13:00:00 19,3 8,0 - - 18 10 E 1023,2 16 0,0
18.04.2019 12:00:00 17,8 9,8 - - 21 11 E 1023,3 13 0,0
18.04.2019 11:00:00 16,3 11,0 - - 15 8 E 1023,6 8 0,0
18.04.2019 10:00:00 14,5 10,5 9,7 8,7 13 7 E 1023,7 6 0,0
18.04.2019 09:00:00 12,3 10,0 - - 15 8 ENE 1023,6 4,4 0,0
18.04.2019 08:00:00 10,3 9,7 - - 15 8 NE 1023,4 3,0 0,0
18.04.2019 07:00:00 7,6 7,6 - - 11 6 NE 1023,4 1,6 0,0
18.04.2019 06:00:00 6,6 6,6 - - 9 5 NNE 1023,1 0,1 0,0
18.04.2019 05:00:00 6,5 6,5 - - 15 8 NE 1022,8 0,1 0,0
18.04.2019 04:00:00 6,3 6,3 - - 9 5 NE 1023,1 - 0,0
18.04.2019 03:00:00 6,1 5,9 - - 11 6 ENE 1023,3 0,9 0,0
18.04.2019 02:00:00 6,5 6,1 - - 8 4 ENE 1023,3 1,0 0,0
18.04.2019 01:00:00 7,0 6,7 - - 11 6 ENE 1023,1 1,1 0,0
18.04.2019 00:00:00 6,9 6,3 - - 9 5 ENE 1022,9 1,2 0,0
17.04.2019 23:00:00 7,6 7,2 - - 9 5 E 1022,6 1,4 0,0
17.04.2019 22:00:00 8,3 7,7 - - 16 9 E 1022,4 1,6 0,0
17.04.2019 21:00:00 8,5 7,4 - - 13 7 E 1021,9 2,0 0,0
17.04.2019 20:00:00 10,5 8,0 - - 11 6 ESE 1021,1 3,4 0,0
17.04.2019 19:00:00 12,8 8,2 - - 15 8 ESE 1020,3 4,6 0,0
17.04.2019 18:00:00 14,5 9,0 - - 18 10 ESE 1019,8 4,8 0,0
17.04.2019 17:00:00 15,8 8,3 - - 16 9 ESE 1019,5 7 0,0

tt = temperature
td = dewpoint
tt -20cm = temperature -20cm
tt -100cm = temperature -100cm
ff = wind speed
dd = wind direction
ppp = reduced air pressure
vv = visibility
rr = precipitation

Next stations